Regional Weather Roundup
Issued by NWS Cleveland, OH

Home | Current Version | Previous Version | Graphics & Text | Print | Product List | Glossary On
Versions: 1 2 3 4 5 6 7 8 9 10 11 12 13 14 15 16 17 18 19 20 21 22 23 24 25 26 27 28 29 30 31 32 33 34 35 36 37 38 39 40 41 42 43 44 45 46 47 48 49 50
000
ASUS41 KCLE 240800
RWRCLE
OHIO REGIONAL WEATHER ROUNDUP
NATIONAL WEATHER SERVICE WILMINGTON, OH
400 AM EDT THU JUL 24 2014

NOTE: "FAIR" INDICATES FEW OR NO CLOUDS BELOW 12,000 FEET WITH NO
SIGNIFICANT WEATHER AND/OR OBSTRUCTIONS TO VISIBILITY.

OHZ001>008-015>018-024>027-034-035-043-044-240900-
   NORTHWEST OHIO

CITY           SKY/WX    TMP DP  RH WIND       PRES   REMARKS
DEFIANCE       CLOUDY    62  55  77 NE7       30.07S
FINDLAY        CLEAR     60  55  83 NE8       30.05S
TOLEDO EXPRESS CLEAR     56  53  90 N6        30.06F
TOLEDO METCALF CLEAR     61  51  70 NE5       30.06F
LIMA           CLEAR     59  57  93 N7        30.05F FOG
$$

OHZ009>014-019>023-028>033-038-089-240900-
   NORTHEAST OHIO

CITY           SKY/WX    TMP DP  RH WIND       PRES   REMARKS
CLE-HOPKINS    MOCLDY    64  56  75 N9        30.04S
CLE-LAKEFRONT  MOCLDY    66  56  70 NE10      30.01F
CUY CO. ARPT   NOT AVBL
LORAIN-ELYRIA  PTCLDY    64  57  78 NE6       30.04S
ASHTABULA      CLOUDY    62  55  77 N3        30.02S
AKRON-CANTON   PTCLDY    58  55  90 N5        30.02S
WOOSTER        NOT AVBL
MANSFIELD      CLEAR     55  54  96 N8        30.03F
YOUNGSTOWN     PTCLDY    56  54  93 CALM      30.01S
$$

OHZ042-051>053-060>062-070>072-077>081-240900-
  SOUTHWEST OHIO

CITY           SKY/WX    TMP DP  RH WIND       PRES   REMARKS
CINC-COVINGTON MOCLDY    66  59  78 NE13      29.99F
CINC-LUNKEN    MOCLDY    65  56  72 NE13      30.00F
HAMILTON       CLOUDY    66  56  70 E8        30.03R
DAYTON         NOT AVBL
WRIGHT-PAT AFB PTCLDY    59  56  91 NE6       30.04R
DAYTON GENERAL MOCLDY    62  56  80 E10       30.02S
WILMINGTON     CLOUDY    62  55  77 NE8       30.02S
$$

OHZ036-037-039>041-045>050-054>059-063>069-073>076-082>088-240900-
  CENTRAL AND SOUTHEAST OHIO

CITY           SKY/WX    TMP DP  RH WIND       PRES   REMARKS
COLUMBUS       PTCLDY    61  55  81 N6        30.02S
OSU AIRPORT    CLEAR     56  54  93 N5        30.03S
BOLTON FIELD   NOT AVBL
RICKENBACK AFB NOT AVBL
NEWARK         MOCLDY    62  55  77 N5        30.01S
MARION         CLEAR     55  53  93 N5        30.04S
LANCASTER      CLOUDY    62  57  83 N3        30.00F
ZANESVILLE     CLOUDY    62  56  80 N6        29.99F
NEW PHILLY     PTCLDY    59  57  93 CALM      30.01F
$$



USA.gov is the U.S. government's official web portal to all federal, state and local government web resources and services.